Current weather by "City, St" or "zip code"  
 

Current Conditions: CRAWFORDSVILLE

Clear


74.3 F

Last Updated on Jun 18 2024, 12:55 AM EDT
Humidity: 54%
Wind Speed: S 10.4 mph
Barometer 30.05 in
Dewpoint: 56.5 F
Visibility: 10.00 mi
Precip: --
Heat Index: 73.9 F
Wind Chill: NA
Current conditions at:

CRAWFORDSVILLE (KCFJ)

Lat: 39.9799999 Lon: 86.92

active severe weather and emergency alerts image image weather storm and storm spotter reports image weather observation monitoring service image
Active
Alerts
Storm Reports Obs
Monitoring

Sign-up For Email & Text Message Weather Alert Notification Services



Advertise Here

Observation History for CRAWFORDSVILLE


Time Wind
(mph)
Vis
(mi)
Weather Precip (in) Temperature (F) Relative
Humidity
Wind
Chill
(F)
Heat
Index
(F)
Pressure
Air Dwpt altimeter
(in)
sea level
(mb)
Rmks
12:55 AM EDT S 10.4 10.00 Clear -- 74.3 56.5 54% NA 73.9 30.05 1017.6
11:55 PM EDT S 8.1 10.00 Clear -- 75.6 56.3 51% NA 75.2 30.04 1017.3
11:35 PM EDT S 9.2 10.00 Clear -- 76.3 55.6 49% NA 75.9 30.04 1017.3
10:55 PM EDT S 11.5 10.00 Clear -- 77.9 55.4 46% NA 77.5 30.03 1016.9
10:35 PM EDT S 11.5 10.00 Clear -- 78.3 57.6 49% NA 78.1 30.03 1016.9
10:15 PM EDT S 9.2 10.00 Clear -- 79.3 60.4 52% NA 79.5 30.02 1016.6
09:55 PM EDT 10.00 Clear -- NULL % NA NA M
08:35 PM EDT S 9.2 10.00 Partly Cloudy -- 83.7 59.9 45% NA 83.7 29.98 1015.2
07:55 PM EDT S 12.7 10.00 Clear -- 85.1 60.1 43% NA 84.9 29.98 1015.2
06:55 PM EDT S 11.5 10.00 Clear -- 85.1 61.2 45% NA 85.3 29.98 1015.2
06:35 PM EDT S 10.4 10.00 Clear -- 87.3 61.7 42% NA 87.6 29.97 1014.9
05:15 PM EDT S 13.8 10.00 Partly Cloudy -- 89.1 63.5 43% NA 90.1 29.99 1015.6
04:55 PM EDT 10.00 Partly Cloudy -- NULL % NA NA M
04:35 PM EDT S 13.8 10.00 Clear -- 88.9 62.2 41% NA 89.4 30.00 1015.9
03:55 PM EDT 12.7 10.00 Clear -- 89.6 61.3 39% NA 89.8 30.00 1015.9
03:35 PM EDT 10.00 Partly Cloudy -- 89.4 61.2 39% NA 89.6 30.00 1015.9
03:15 PM EDT 10.00 Partly Cloudy -- 89.4 61.9 40% NA 89.8 30.00 1015.9
02:35 PM EDT S 13.8 10.00 Partly Cloudy -- 89.8 63.7 42% NA 91.0 30.02 1016.6
02:15 PM EDT SW 6.9 10.00 Mostly Cloudy -- 86.5 62.1 44% NA 87.1 30.03 1016.9
12:35 PM EDT 10.4 10.00 Clear -- 86.9 64.4 47% NA 88.3 30.05 1017.6
12:15 PM EDT S 8.1 10.00 Clear -- 86.4 64.2 48% NA 87.8 30.06 1017.9
09:35 AM EDT 8.1 10.00 Clear -- 80.6 64.2 58% NA 82.2 30.06 1017.9
09:15 AM EDT 9.2 10.00 Clear -- 79.2 64.0 60% NA 79.5 30.06 1017.9
08:35 AM EDT 8.1 10.00 Clear -- 77.0 64.2 65% NA 77.4 30.04 1017.3

Regional Weather Observation


LAFAYETTE (KLAF)

Clear
80.1 F

FRANKFORT (KFKR)

Mostly Cloudy
NULL F

MONTICELLO/WHITE (KMCX)

Clear
80.4 F

INDIANAPOLIS EXC (KTYQ)

Clear
79.3 F

RENSSELAER (KRZL)

Clear
78.8 F

PARIS (KPRG)

Clear
78.6 F

Advertise Here


Advertise Here